User: anonymous   Login
Location: Brno
(49.2000°N, 16.6330°E)
Time: 07:25:16
(UTC+02:00)
Language:

Cosmos 332 Rocket - Orbit

View from above orbital plane
View from above orbital plane
View from above satellite
View from above satellite

Ground track
Ground track

The orbit data is extracted from the following two-line orbital elements,

1  4370U 70028B   17083.92330225 +.00000166 +00000-0 +40909-4 0  9995
2  4370 074.0381 249.9344 0015825 193.3260 166.7490 14.59840232999197
Epoch (UTC): 24 March 2017 22:09:33
Eccentricity: 0.0015825
inclination: 74.0381°
perigee height: 682 km
apogee height: 705 km
right ascension of ascending node: 249.9344°
argument of perigee: 193.3260°
revolutions per day: 14.59840232
mean anomaly at epoch: 166.7490°
orbit number at epoch: 99919

The dashed part of the orbit path shows where the satellite is in the earth's shadow,  

DLR